CZ-2F R/B, 66264

Orbit data source: Space-Track

CZ-2F R/B, 66264 is space debris in LEO originally from a launch on Fri, 31 Oct 2025 UTC via a CHANG ZHENG 2F launch vehicle from the Jiuquan Satellite Launch Center, China (JSC). Debris objects in space refer to the collection of defunct objects orbiting the Earth. Examples of debris include non-operational satellites, rocket bodies, and fragments generated from explosions, collisions, or faulty payload assembly.

Not visible in the next 10 days
Identifier
66264, 2025-246B
Orbit
LEO
Country
Flag of CNCN / PRC
Related business
Manufacturer
CALT?
Mission
Spacecraft
Bus & Motor
CZ-2F, Unknown motor
Mass
5,500 kg wet, 5,500 kg dry
Launch date (UTC)
2025-10-31 (1 week ago)
Launch vehicle
CHANG ZHENG 2F
Launch site
Jiuquan Satellite Launch Center, China (JSC)
Object type
Payload
Rocket body
Debris
Shape & HBR
Unknown
Radar Cross Section
RCS unknown

Expand to show TLE details & history
Last TLE update: 16 hours ago

TLE from 16 hours ago
0 CZ-2F R/B
1 66264U 25246B   25311.23026155  .01388549  76297-5  59777-3 0  9991
2 66264  41.4631 229.5206 0078688 176.8975 183.2385 16.14147756  1060
Epoch: 2025-11-07T05:31Z
TLE epoch observation values (Epoch: 2025-11-07T05:31:34.597Z)
Latitude
-0.00005°
Longitude
99.94917°
Altitude
287.03 km
Speed
7.707 km/s
True Right ascension
15h 18m 04s
True Declination
0° 00' 00"
Sunlit
Object was in daylight at epoch
Visualization orbit readout
Latitude
Unknown
Longitude
Unknown
Altitude
Unknown
Speed
Unknown
Apparent Right ascension
Unknown
Apparent Declination
Unknown
Sunlit
N/A
Visualization observer readout
Local Sidereal Time
17:47:28
Azimuth
Unknown
Elevation
Unknown
Doppler factor
Unknown
Orbital elements
Apogee altitude
289.833 km
Perigee altitude
185.715 km
Semi-major axis
6,615.911 km
Eccentricity
0.00787
Inclination
41.4631°
RAAN
229.5206°
Arg. of periapsis
176.8975°
True anomaly
183.18806°
Mean anomaly
183.2385°
Eccentric anomaly
183.21323°
Mean motion
4.03328 °/min
Orbital period
89.26 mins
BSTAR
0.00059777
Loading maneuver chart data...
Computing Atmospheric mass density...
Loading historical data...
Loading historical data...
Loading historical data...
Loading historical data...
Loading historical data...
Loading historical data...
Loading historical data...
Other satellites on launch #246 in the year 2025 (2025-10-31 UTC)

Documentation

Showing up to 5 results
|